Voltar ao catálogo

STARLINK-31656

AtivoComunicaçõesVLEO
NORAD 60286·PAYLOAD·🇺🇸 United States

Lançado Jul 28, 2024 de Cape Canaveral Space Force Station

Loading…

Próximas Passagens (próximas 24 horas)

TLE

AtualizadoSource: CelesTrak SupGP

Época: Sep 15, 2026, 02:48 UTC

1 60286C 24132J   26258.11715278 -.00033780  00000+0 -99780-3 0  2585
2 60286  53.1582 251.0865 0001371  86.7716 266.8272 15.34414724    11

Acompanhe STARLINK-31656 em tempo real com AllMySat

Download on the App Store